• In Belarus
  • List of Countries
  • For 7 days
  • Water Temperature
  • Satellite Maps
  • Weather Map
  • Weather Widgets
  • user-avatar
    Login

    Hourly Weather Kuesnacht

    Today, 20 September, Thursday

    Time Temperature Precipitation Wind Pressure Humidity
    00:00 +16°C° 0 mm 1 mps 721 mmHg 78%
    01:00 +18°C° 0 mm 1 mps 721 mmHg 70%
    02:00 +16°C° 0 mm 1 mps 721 mmHg 70%
    03:00 +16°C° 0 mm 1 mps 721 mmHg 70%
    04:00 +16°C° 0 mm 1 mps 721 mmHg 70%
    05:00 +16°C° 0 mm 1 mps 721 mmHg 70%
    06:00 +16°C° 0 mm 1 mps 721 mmHg 70%
    07:00 +16°C° 0 mm 1 mps 721 mmHg 71%
    08:00 +20°C° 0 mm 1 mps 721 mmHg 64%
    09:00 +22°C° 0 mm 1 mps 721 mmHg 58%
    10:00 +23°C° 0 mm 0 mps 722 mmHg 52%
    11:00 +26°C° 0 mm 1 mps 721 mmHg 49%
    12:00 +27°C° 0 mm 1 mps 721 mmHg 47%
    13:00 +28°C° 0 mm 1 mps 721 mmHg 45%
    14:00 +28°C° 0 mm 1 mps 721 mmHg 47%
    15:00 +28°C° 0 mm 1 mps 720 mmHg 49%
    16:00 +27°C° 0 mm 1 mps 720 mmHg 51%
    17:00 +25°C° 0 mm 1 mps 719 mmHg 59%
    18:00 +22°C° 0 mm 1 mps 719 mmHg 67%
    19:00 +20°C° 0 mm 1 mps 719 mmHg 76%
    20:00 +19°C° 0 mm 1 mps 719 mmHg 77%
    21:00 +19°C° 0 mm 1 mps 719 mmHg 78%
    22:00 +18°C° 0 mm 1 mps 719 mmHg 79%
    23:00 +18°C° 0 mm 1 mps 719 mmHg 80%

    Tomorrow, 21 September, Friday

    Time Temperature Precipitation Wind Pressure Humidity
    00:00 +18°C° 0 mm 1 mps 718 mmHg 81%
    01:00 +18°C° 0 mm 1 mps 718 mmHg 82%
    02:00 +16°C° 0 mm 1 mps 718 mmHg 82%
    03:00 +16°C° 0 mm 1 mps 717 mmHg 82%
    04:00 +16°C° 0 mm 1 mps 717 mmHg 82%
    05:00 +16°C° 0 mm 2 mps 717 mmHg 81%
    06:00 +16°C° 0 mm 2 mps 717 mmHg 80%
    07:00 +17°C° 0 mm 2 mps 717 mmHg 79%
    08:00 +19°C° 0 mm 2 mps 717 mmHg 70%
    09:00 +23°C° 0 mm 2 mps 718 mmHg 62%
    10:00 +25°C° 0 mm 3 mps 718 mmHg 54%
    11:00 +26°C° 0 mm 3 mps 718 mmHg 51%
    12:00 +27°C° 0 mm 4 mps 717 mmHg 49%
    13:00 +27°C° 0 mm 4 mps 717 mmHg 47%
    14:00 +26°C° 0.1 mm 4 mps 717 mmHg 51%
    15:00 +25°C° 0.1 mm 4 mps 717 mmHg 55%
    16:00 +23°C° 0.1 mm 4 mps 717 mmHg 58%
    17:00 +21°C° 0.2 mm 3 mps 718 mmHg 68%
    18:00 +19°C° 0.2 mm 3 mps 718 mmHg 77%
    19:00 +17°C° 0.2 mm 3 mps 719 mmHg 87%
    20:00 +17°C° 0.9 mm 3 mps 719 mmHg 90%
    21:00 +16°C° 0.9 mm 2 mps 720 mmHg 92%
    22:00 +15°C° 0.9 mm 2 mps 720 mmHg 95%
    23:00 +15°C° 0.2 mm 1 mps 720 mmHg 95%

    Day after tomorrow, 22 September, Saturday

    Time Temperature Precipitation Wind Pressure Humidity
    00:00 +14°C° 0.2 mm 1 mps 720 mmHg 95%
    01:00 +14°C° 0.2 mm 1 mps 721 mmHg 95%
    02:00 +13°C° 0 mm 1 mps 721 mmHg 95%
    03:00 +13°C° 0 mm 1 mps 721 mmHg 95%
    04:00 +13°C° 0 mm 1 mps 721 mmHg 95%
    05:00 +13°C° 0 mm 1 mps 721 mmHg 95%
    06:00 +11°C° 0 mm 0 mps 721 mmHg 95%
    07:00 +11°C° 0 mm 0 mps 722 mmHg 95%
    08:00 +12°C° 0 mm 0 mps 722 mmHg 89%
    09:00 +15°C° 0 mm 1 mps 722 mmHg 82%
    10:00 +16°C° 0 mm 1 mps 722 mmHg 76%
    11:00 +19°C° 0 mm 1 mps 722 mmHg 68%
    12:00 +20°C° 0 mm 1 mps 722 mmHg 60%
    13:00 +21°C° 0 mm 1 mps 722 mmHg 52%
    14:00 +21°C° 0 mm 1 mps 722 mmHg 52%
    15:00 +20°C° 0 mm 2 mps 722 mmHg 53%
    16:00 +20°C° 0 mm 2 mps 721 mmHg 53%
    17:00 +19°C° 0 mm 1 mps 721 mmHg 59%
    18:00 +18°C° 0 mm 1 mps 721 mmHg 64%
    19:00 +14°C° 0 mm 0 mps 721 mmHg 70%
    20:00 +14°C° 0 mm 0 mps 722 mmHg 71%
    21:00 +14°C° 0 mm 0 mps 722 mmHg 71%
    22:00 +14°C° 0 mm 1 mps 722 mmHg 72%
    23:00 +14°C° 0 mm 1 mps 722 mmHg 71%

    23 September, Sunday

    Time Temperature Precipitation Wind Pressure Humidity
    00:00 +14°C° 0 mm 1 mps 721 mmHg 71%
    01:00 +14°C° 0 mm 1 mps 721 mmHg 71%
    02:00 +14°C° 0 mm 1 mps 721 mmHg 70%
    03:00 +14°C° 0 mm 1 mps 721 mmHg 70%
    04:00 +14°C° 0 mm 1 mps 720 mmHg 69%
    05:00 +14°C° 0 mm 1 mps 720 mmHg 69%
    06:00 +15°C° 0 mm 2 mps 720 mmHg 68%
    07:00 +15°C° 0 mm 2 mps 720 mmHg 67%
    08:00 +17°C° 0 mm 2 mps 720 mmHg 61%
    09:00 +20°C° 0 mm 2 mps 720 mmHg 55%
    10:00 +24°C° 0 mm 3 mps 720 mmHg 48%
    11:00 +25°C° 0 mm 3 mps 719 mmHg 48%
    12:00 +26°C° 0 mm 4 mps 719 mmHg 47%
    13:00 +27°C° 0 mm 4 mps 718 mmHg 47%
    14:00 +27°C° 0 mm 4 mps 718 mmHg 49%
    15:00 +27°C° 0 mm 4 mps 717 mmHg 51%
    16:00 +27°C° 0 mm 4 mps 717 mmHg 53%
    17:00 +26°C° 0.1 mm 4 mps 717 mmHg 59%
    18:00 +23°C° 0.1 mm 4 mps 716 mmHg 64%
    19:00 +21°C° 0.1 mm 3 mps 716 mmHg 69%
    20:00 +21°C° 0.3 mm 4 mps 716 mmHg 74%
    21:00 +20°C° 0.3 mm 5 mps 716 mmHg 79%
    22:00 +19°C° 0.3 mm 5 mps 716 mmHg 83%
    23:00 +17°C° 0.8 mm 5 mps 717 mmHg 86%

    24 September, Monday

    Time Temperature Precipitation Wind Pressure Humidity
    00:00 +16°C° 0.8 mm 6 mps 718 mmHg 88%
    01:00 +15°C° 0.8 mm 6 mps 719 mmHg 91%
    02:00 +13°C° 0.4 mm 5 mps 720 mmHg 91%
    03:00 +12°C° 0.4 mm 4 mps 721 mmHg 91%
    04:00 +10°C° 0.4 mm 2 mps 722 mmHg 91%
    05:00 +10°C° 0.1 mm 2 mps 722 mmHg 91%
    06:00 +9°C° 0.1 mm 2 mps 723 mmHg 91%
    07:00 +9°C° 0.1 mm 1 mps 723 mmHg 92%
    08:00 +9°C° 0 mm 2 mps 724 mmHg 85%
    09:00 +12°C° 0 mm 2 mps 724 mmHg 78%
    10:00 +13°C° 0 mm 2 mps 725 mmHg 72%
    11:00 +14°C° 0 mm 2 mps 725 mmHg 66%
    12:00 +14°C° 0 mm 3 mps 725 mmHg 60%
    13:00 +14°C° 0 mm 3 mps 725 mmHg 54%
    14:00 +14°C° 0 mm 3 mps 725 mmHg 54%
    15:00 +14°C° 0 mm 3 mps 725 mmHg 54%
    16:00 +14°C° 0 mm 3 mps 725 mmHg 53%
    17:00 +13°C° 0 mm 3 mps 725 mmHg 60%
    18:00 +12°C° 0 mm 2 mps 726 mmHg 66%
    19:00 +9°C° 0 mm 2 mps 726 mmHg 72%
    20:00 +8°C° 0 mm 2 mps 726 mmHg 74%
    21:00 +8°C° 0 mm 2 mps 727 mmHg 76%
    22:00 +7°C° 0 mm 2 mps 727 mmHg 79%
    23:00 +7°C° 0 mm 1 mps 727 mmHg 80%

    25 September, Tuesday

    Time Temperature Precipitation Wind Pressure Humidity
    00:00 +7°C° 0 mm 1 mps 728 mmHg 81%
    01:00 +7°C° 0 mm 1 mps 728 mmHg 82%
    02:00 +6°C° 0 mm 1 mps 728 mmHg 83%
    03:00 +6°C° 0 mm 1 mps 728 mmHg 83%
    04:00 +6°C° 0 mm 1 mps 728 mmHg 84%
    05:00 +6°C° 0 mm 1 mps 728 mmHg 84%
    06:00 +6°C° 0 mm 1 mps 728 mmHg 83%
    07:00 +6°C° 0 mm 1 mps 728 mmHg 83%
    08:00 +8°C° 0 mm 1 mps 728 mmHg 73%
    09:00 +10°C° 0 mm 2 mps 728 mmHg 62%
    10:00 +13°C° 0 mm 2 mps 728 mmHg 52%
    11:00 +14°C° 0 mm 2 mps 728 mmHg 49%
    12:00 +14°C° 0 mm 3 mps 728 mmHg 46%
    13:00 +17°C° 0 mm 3 mps 728 mmHg 43%
    14:00 +17°C° 0 mm 3 mps 728 mmHg 44%
    15:00 +16°C° 0 mm 3 mps 727 mmHg 46%
    16:00 +16°C° 0 mm 2 mps 727 mmHg 47%
    17:00 +14°C° 0 mm 2 mps 727 mmHg 56%
    18:00 +12°C° 0 mm 2 mps 728 mmHg 65%
    19:00 +9°C° 0 mm 2 mps 728 mmHg 74%
    20:00 +8°C° 0 mm 2 mps 728 mmHg 74%
    21:00 +8°C° 0 mm 2 mps 728 mmHg 75%
    22:00 +7°C° 0 mm 2 mps 728 mmHg 76%
    23:00 +8°C° 0 mm 1 mps 728 mmHg 74%
    Show more